period_start,C,m1,H,J0,J1,J2,J3,J4,J5,JA,JB,JC,JD,JJ,JK,JN,#
2014-08-18 00:02:55,-0.00,0.79,0.00,24.40,29.00,31.34,9.60,40.49,1012.23,2029.99,3118.53,3087.00,3319.21,500.00,491.97,45.96,0000 0000 0000 0000 000000
2014-08-18 00:07:56,-0.01,0.79,0.00,24.42,28.97,31.29,9.57,40.42,1012.22,2030.01,3118.71,3087.01,3319.59,500.22,492.40,46.00,0000 0000 0000 0000 000000
2014-08-18 00:12:58,-0.00,0.79,0.00,24.46,28.96,31.26,9.43,40.52,1012.22,2030.05,3118.96,3087.04,3319.94,499.96,492.09,46.04,0000 0000 0000 0000 000000
2014-08-18 00:17:59,0.02,0.79,0.00,24.49,28.95,31.24,9.55,40.62,1012.22,2030.20,3118.95,3087.08,3319.95,500.19,492.19,46.08,0000 0000 0000 0000 000000
2014-08-18 00:23:00,-0.01,0.79,0.00,24.50,28.95,31.23,9.46,40.54,1012.22,2030.13,3118.91,3087.02,3319.80,499.84,492.04,46.12,0000 0000 0000 0000 000000
2014-08-18 00:28:02,0.02,0.79,0.00,24.52,28.93,31.23,9.60,40.50,1012.22,2030.20,3118.90,3087.02,3319.82,500.41,492.39,46.17,0000 0000 0000 0000 000000
2014-08-18 00:33:03,-0.01,0.79,0.00,24.53,28.92,31.24,9.59,40.50,1012.22,2030.17,3118.90,3087.02,3319.78,500.15,492.22,46.21,0000 0000 0000 0000 000000
2014-08-18 00:38:04,0.03,0.79,0.00,24.56,28.92,31.23,9.47,40.38,1012.24,2030.31,3118.85,3087.03,3319.72,500.09,492.07,46.25,0000 0000 0000 0000 000000
2014-08-18 00:43:05,-0.01,0.79,0.00,24.57,28.92,31.22,9.39,40.44,1012.26,2030.37,3118.82,3087.02,3319.62,499.83,491.86,46.29,0000 0000 0000 0000 000000
2014-08-18 00:48:06,0.03,0.79,0.00,24.57,28.92,31.23,9.46,40.21,1012.24,2030.39,3118.45,3087.02,3319.40,499.70,491.60,46.33,0000 0000 0000 0000 000000
2014-08-18 00:53:07,0.01,0.79,0.00,24.59,28.92,31.23,9.51,40.25,1012.24,2030.65,3118.75,3087.08,3319.70,500.25,492.12,46.37,0000 0000 0000 0000 000000
2014-08-18 00:58:09,0.02,0.79,0.00,24.58,28.92,31.23,9.43,40.22,1012.26,2030.52,3118.57,3087.03,3319.45,499.74,491.67,46.42,0000 0000 0000 0000 000000
2014-08-18 01:03:10,0.02,0.79,0.00,24.60,28.92,31.24,9.47,40.18,1012.25,2030.75,3118.25,3087.02,3319.27,499.83,491.76,46.46,0000 0000 0000 0000 000000
2014-08-18 01:08:11,-0.01,0.79,0.00,24.59,28.92,31.24,9.49,40.31,1012.23,2030.74,3118.14,3087.01,3319.14,499.97,491.90,46.50,0000 0000 0000 0000 000000
2014-08-18 01:13:12,-0.01,0.79,0.00,24.58,28.92,31.24,9.46,40.17,1012.22,2030.58,3118.06,3087.00,3319.06,500.09,491.96,46.54,0000 0000 0000 0000 000000
2014-08-18 01:18:14,-0.02,0.79,0.00,24.57,28.92,31.25,9.50,40.26,1012.22,2030.37,3118.04,3087.00,3319.01,499.95,491.88,46.58,0000 0000 0000 0000 000000
2014-08-18 01:23:15,0.00,0.79,0.00,24.57,28.92,31.25,9.48,40.25,1012.22,2030.36,3118.03,3087.00,3319.01,499.82,491.72,46.62,0000 0000 0000 0000 000000
2014-08-18 01:28:16,-0.03,0.79,0.00,24.58,28.93,31.26,9.52,40.28,1012.22,2030.25,3118.00,3087.00,3319.00,500.09,492.09,46.66,0000 0000 0000 0000 000000
2014-08-18 01:33:17,0.01,0.79,0.00,24.59,28.94,31.26,9.50,40.15,1012.22,2030.28,3118.00,3086.99,3318.99,500.05,492.01,46.71,0000 0000 0000 0000 000000
2014-08-18 01:38:19,-0.01,0.79,0.00,24.61,28.95,31.26,9.43,40.12,1012.22,2030.10,3117.97,3086.98,3318.97,499.77,491.55,46.75,0000 0000 0000 0000 000000
2014-08-18 01:43:20,0.00,0.79,0.00,24.60,28.95,31.26,9.60,40.33,1012.22,2030.09,3117.95,3086.93,3318.94,500.24,492.01,46.79,0000 0000 0000 0000 000000
2014-08-18 01:48:21,0.01,0.79,0.00,24.61,28.95,31.27,9.56,40.23,1012.21,2030.09,3117.80,3086.86,3318.82,500.11,491.77,46.83,0000 0000 0000 0000 000000
2014-08-18 01:53:22,0.02,0.79,0.00,24.62,28.95,31.27,9.50,40.21,1012.17,2030.03,3117.71,3086.51,3318.49,500.03,492.00,46.87,0000 0000 0000 0000 000000
2014-08-18 01:58:23,0.02,0.79,0.00,24.63,28.96,31.27,9.50,40.23,1012.19,2030.05,3117.27,3086.27,3318.14,499.94,491.75,46.91,0000 0000 0000 0000 000000
2014-08-18 02:03:24,-0.01,0.79,0.00,24.64,28.97,31.28,9.46,40.13,1012.13,2030.04,3117.26,3086.18,3318.12,500.39,491.90,46.96,0000 0000 0000 0000 000000
2014-08-18 02:08:26,0.01,0.79,0.00,24.65,28.97,31.28,9.46,40.10,1012.07,2030.04,3117.10,3086.11,3318.03,499.86,491.61,47.00,0000 0000 0000 0000 000000
2014-08-18 02:13:27,-0.00,0.79,0.00,24.67,28.97,31.29,9.48,40.04,1012.07,2030.02,3117.01,3086.01,3318.00,500.16,491.72,47.04,0000 0000 0000 0000 000000
2014-08-18 02:18:28,0.00,0.79,0.00,24.68,28.98,31.30,9.52,40.29,1012.11,2030.00,3117.00,3086.00,3318.00,500.15,491.90,47.08,0000 0000 0000 0000 000000
2014-08-18 02:23:29,0.00,0.79,0.00,24.69,28.99,31.30,9.50,40.26,1012.16,2030.00,3116.98,3086.00,3317.99,499.96,491.67,47.12,0000 0000 0000 0000 000000
2014-08-18 02:28:31,0.00,0.79,0.00,24.67,29.00,31.30,9.44,40.13,1012.13,2030.00,3116.96,3085.99,3317.96,499.76,491.45,47.16,0000 0000 0000 0000 000000
2014-08-18 02:33:32,0.01,0.80,0.00,24.69,29.00,31.31,9.50,40.27,1012.12,2030.00,3116.78,3085.98,3317.75,499.77,491.53,47.20,0000 0000 0000 0000 000000
2014-08-18 02:38:33,0.01,0.80,0.00,24.70,29.00,31.32,9.48,40.23,1011.92,2030.00,3116.57,3085.96,3317.43,499.81,491.51,47.25,0000 0000 0000 0000 000000
2014-08-18 02:43:33,0.01,0.80,0.00,24.70,29.00,31.32,9.40,40.38,1011.85,2030.00,3116.28,3085.92,3317.21,499.87,491.43,47.29,0000 0000 0000 0000 000000
2014-08-18 02:48:35,0.01,0.80,0.00,24.70,29.02,31.32,9.47,40.29,1011.77,2030.00,3116.04,3085.55,3317.03,499.86,491.31,47.33,0000 0000 0000 0000 000000
2014-08-18 02:53:36,0.01,0.80,0.00,24.70,29.02,31.32,9.55,40.23,1011.76,2030.00,3115.99,3085.16,3317.00,499.96,491.32,47.37,0000 0000 0000 0000 000000
2014-08-18 02:58:37,0.01,0.80,0.00,24.69,29.02,31.33,9.49,40.25,1011.75,2029.99,3115.81,3085.04,3316.99,499.95,491.31,47.41,0000 0000 0000 0000 000000
2014-08-18 03:03:38,0.01,0.80,0.00,24.73,29.02,31.34,9.47,40.29,1011.74,2029.99,3115.50,3085.01,3316.93,499.88,491.13,47.45,0000 0000 0000 0000 000000
2014-08-18 03:08:39,0.00,0.80,0.00,24.76,29.05,31.34,9.46,40.33,1011.73,2029.99,3115.16,3085.00,3316.79,499.82,491.22,47.49,0000 0000 0000 0000 000000
2014-08-18 03:13:40,0.01,0.80,0.00,24.77,29.05,31.34,9.43,40.35,1011.74,2029.99,3115.02,3085.00,3316.34,499.66,491.17,47.54,0000 0000 0000 0000 000000
2014-08-18 03:18:42,0.00,0.80,0.00,24.78,29.05,31.36,9.49,40.25,1011.75,2029.99,3114.96,3084.99,3316.03,500.03,491.38,47.58,0000 0000 0000 0000 000000
2014-08-18 03:23:43,0.02,0.80,0.00,24.81,29.07,31.37,9.52,40.26,1011.76,2029.99,3114.62,3084.86,3316.00,500.05,491.42,47.62,0000 0000 0000 0000 000000
2014-08-18 03:28:44,0.01,0.80,0.00,24.84,29.07,31.38,9.42,40.38,1011.78,2029.98,3114.35,3084.36,3315.98,499.52,490.84,47.66,0000 0000 0000 0000 000000
2014-08-18 03:33:45,0.01,0.80,0.00,24.86,29.09,31.38,9.44,40.27,1011.88,2029.98,3114.22,3084.07,3315.98,500.00,491.26,47.70,0000 0000 0000 0000 000000
2014-08-18 03:38:46,0.01,0.80,0.00,24.88,29.10,31.39,9.51,40.18,1011.91,2029.97,3114.00,3084.01,3315.57,499.98,491.27,47.74,0000 0000 0000 0000 000000
2014-08-18 03:43:48,0.00,0.80,0.00,24.88,29.11,31.41,9.38,40.17,1011.76,2029.95,3113.98,3084.00,3315.07,499.50,490.94,47.78,0000 0000 0000 0000 000000
2014-08-18 03:48:49,0.00,0.80,0.00,24.92,29.12,31.40,9.42,40.27,1011.75,2029.95,3113.87,3083.99,3315.02,499.78,490.98,47.83,0000 0000 0000 0000 000000
2014-08-18 03:53:50,-0.00,0.80,0.00,24.96,29.13,31.43,9.38,40.21,1011.75,2029.88,3113.57,3083.96,3315.00,499.67,490.91,47.87,0000 0000 0000 0000 000000
2014-08-18 03:58:51,0.01,0.80,0.00,24.96,29.15,31.43,9.45,40.13,1011.74,2029.70,3113.04,3083.39,3314.86,500.04,491.21,47.91,0000 0000 0000 0000 000000
2014-08-18 04:03:52,-0.03,0.80,0.00,24.97,29.16,31.45,9.49,40.33,1011.73,2029.28,3112.99,3083.04,3314.35,499.89,491.05,47.95,0000 0000 0000 0000 000000
2014-08-18 04:08:53,0.02,0.80,0.00,25.01,29.18,31.47,9.42,40.21,1011.73,2029.18,3112.90,3083.01,3314.03,500.05,490.92,47.99,0000 0000 0000 0000 000000
2014-08-18 04:13:54,0.01,0.80,0.00,25.03,29.20,31.47,9.57,40.30,1011.73,2029.18,3112.62,3083.00,3314.00,500.28,490.98,48.03,0000 0000 0000 0000 000000
2014-08-18 04:18:55,-0.01,0.80,0.00,25.04,29.21,31.49,9.40,40.06,1011.69,2029.06,3112.09,3082.96,3313.97,499.74,490.40,48.08,0000 0000 0000 0000 000000
2014-08-18 04:23:56,0.02,0.80,0.00,25.06,29.22,31.50,9.41,40.11,1011.53,2029.03,3112.00,3082.62,3313.68,499.85,490.71,48.12,0000 0000 0000 0000 000000
2014-08-18 04:28:58,0.02,0.80,0.00,25.10,29.25,31.52,9.50,40.00,1011.40,2029.00,3111.94,3082.09,3313.10,500.13,490.83,48.16,0000 0000 0000 0000 000000
2014-08-18 04:33:59,0.02,0.80,0.00,25.14,29.26,31.54,9.47,40.20,1011.28,2029.00,3111.25,3082.00,3313.00,500.07,490.51,48.20,0000 0000 0000 0000 000000
2014-08-18 04:39:01,0.00,0.80,0.00,25.18,29.28,31.56,9.43,40.30,1011.27,2029.00,3111.02,3081.99,3312.94,499.89,490.38,48.24,0000 0000 0000 0000 000000
2014-08-18 04:44:01,0.03,0.81,0.00,25.20,29.30,31.57,9.42,40.17,1011.25,2029.00,3110.98,3081.68,3312.48,500.00,490.36,48.28,0000 0000 0000 0000 000000
2014-08-18 04:49:03,0.02,0.81,0.00,25.21,29.32,31.59,9.52,40.22,1011.26,2028.98,3110.85,3081.13,3312.05,500.32,490.65,48.32,0000 0000 0000 0000 000000
2014-08-18 04:54:04,0.01,0.81,0.00,25.23,29.34,31.61,9.49,40.09,1011.26,2028.98,3110.27,3081.00,3312.00,500.07,490.34,48.37,0000 0000 0000 0000 000000
2014-08-18 04:59:05,0.00,0.81,0.00,25.25,29.36,31.64,9.47,40.23,1011.25,2028.96,3110.01,3081.00,3311.98,499.98,490.21,48.41,0000 0000 0000 0000 000000
2014-08-18 05:04:06,-0.00,0.81,0.00,25.28,29.39,31.65,9.47,40.09,1011.25,2028.91,3109.99,3080.98,3311.82,499.96,490.04,48.45,0000 0000 0000 0000 000000
2014-08-18 05:09:07,0.00,0.81,0.00,25.28,29.40,31.68,9.50,40.16,1011.25,2028.78,3109.85,3080.66,3311.19,499.91,490.16,48.49,0000 0000 0000 0000 000000
2014-08-18 05:14:09,-0.03,0.81,0.00,25.33,29.42,31.70,9.45,40.20,1011.26,2028.29,3109.43,3080.08,3311.01,499.99,490.16,48.53,0000 0000 0000 0000 000000
2014-08-18 05:19:10,0.00,0.81,0.00,25.36,29.45,31.71,9.46,40.21,1011.26,2028.08,3109.03,3080.00,3310.93,499.78,489.85,48.57,0000 0000 0000 0000 000000
2014-08-18 05:24:11,0.01,0.81,0.00,25.37,29.47,31.74,9.49,40.16,1011.25,2028.04,3108.98,3079.97,3310.37,500.09,490.15,48.61,0000 0000 0000 0000 000000
2014-08-18 05:29:12,0.03,0.81,0.00,25.40,29.50,31.76,9.49,40.22,1011.25,2028.01,3108.44,3079.43,3310.02,499.99,490.09,48.66,0000 0000 0000 0000 000000
2014-08-18 05:34:13,0.01,0.81,0.00,25.43,29.51,31.78,9.44,40.16,1011.25,2028.00,3108.05,3079.02,3309.99,500.33,490.40,48.70,0000 0000 0000 0000 000000
2014-08-18 05:39:14,0.01,0.81,0.00,25.46,29.54,31.80,9.39,40.20,1011.23,2028.00,3107.95,3079.00,3309.51,499.83,489.90,48.74,0000 0000 0000 0000 000000
2014-08-18 05:44:15,0.02,0.81,0.00,25.49,29.56,31.82,9.39,40.27,1011.24,2028.00,3107.62,3078.89,3309.03,499.67,489.72,48.78,0000 0000 0000 0000 000000
2014-08-18 05:49:16,0.02,0.81,0.00,25.50,29.59,31.84,9.47,40.23,1011.17,2027.98,3107.12,3078.33,3309.00,500.16,489.94,48.82,0000 0000 0000 0000 000000
2014-08-18 05:54:17,0.01,0.81,0.00,25.53,29.61,31.86,9.46,40.21,1010.93,2027.96,3107.00,3078.02,3308.94,500.11,489.79,48.86,0000 0000 0000 0000 000000
2014-08-18 05:59:19,0.01,0.81,0.00,25.56,29.63,31.89,9.40,40.23,1010.84,2027.88,3106.88,3078.00,3308.40,499.84,489.46,48.91,0000 0000 0000 0000 000000
2014-08-18 06:04:20,-0.03,0.81,0.00,25.58,29.65,31.92,9.46,40.23,1010.78,2027.55,3106.53,3077.95,3308.04,499.99,489.26,48.95,0000 0000 0000 0000 000000
2014-08-18 06:09:21,-0.01,0.81,0.00,25.63,29.68,31.94,9.35,40.22,1010.76,2027.14,3106.17,3077.47,3307.99,499.72,489.26,48.99,0000 0000 0000 0000 000000
2014-08-18 06:14:22,0.01,0.81,0.00,25.65,29.70,31.96,9.32,40.25,1010.76,2027.03,3105.95,3077.02,3307.54,499.81,489.34,49.03,0000 0000 0000 0000 000000
2014-08-18 06:19:23,0.01,0.81,0.00,25.67,29.72,31.97,9.34,40.30,1010.76,2027.00,3105.71,3077.00,3307.05,499.41,488.96,49.07,0000 0000 0000 0000 000000
2014-08-18 06:24:24,0.01,0.81,0.00,25.72,29.75,31.99,9.48,40.34,1010.76,2027.00,3105.21,3076.85,3307.00,500.13,489.41,49.11,0000 0000 0000 0000 000000
2014-08-18 06:29:25,0.02,0.81,0.00,25.75,29.77,32.01,9.57,40.48,1010.76,2027.00,3105.01,3076.28,3306.90,500.16,489.45,49.15,0000 0000 0000 0000 000000
2014-08-18 06:34:26,0.01,0.81,0.00,25.79,29.79,32.04,9.41,40.36,1010.76,2026.98,3104.99,3076.01,3306.24,500.09,489.35,49.20,0000 0000 0000 0000 000000
2014-08-18 06:39:28,0.01,0.81,0.00,25.84,29.82,32.06,9.39,40.47,1010.77,2026.97,3104.71,3075.99,3306.01,500.01,489.05,49.24,0000 0000 0000 0000 000000
2014-08-18 06:44:29,0.01,0.81,0.00,25.87,29.85,32.08,9.33,40.25,1010.78,2026.91,3104.09,3075.78,3305.98,499.86,488.94,49.28,0000 0000 0000 0000 000000
2014-08-18 06:49:30,-0.02,0.82,0.00,25.90,29.88,32.11,9.38,40.17,1010.77,2026.60,3103.99,3075.14,3305.48,499.65,488.70,49.32,0000 0000 0000 0000 000000
2014-08-18 06:54:31,-0.01,0.81,0.00,25.95,29.91,32.14,9.34,40.42,1010.76,2026.25,3103.62,3075.00,3305.03,500.01,488.87,49.36,0000 0000 0000 0000 000000
2014-08-18 06:59:32,0.00,0.81,0.00,25.95,29.93,32.17,9.43,40.39,1010.76,2026.04,3103.04,3074.96,3304.97,500.14,489.18,49.40,0000 0000 0000 0000 000000
2014-08-18 07:04:33,0.02,0.81,0.00,25.95,29.96,32.20,9.49,40.32,1010.76,2026.02,3102.99,3074.63,3304.67,500.10,489.09,49.45,0000 0000 0000 0000 000000
2014-08-18 07:09:34,0.03,0.82,0.00,26.00,29.99,32.23,9.36,40.25,1010.76,2026.00,3102.52,3074.03,3304.03,499.87,488.81,49.49,0000 0000 0000 0000 000000
2014-08-18 07:14:35,0.01,0.82,0.00,26.05,30.01,32.25,9.54,40.41,1010.74,2026.00,3102.02,3073.97,3303.97,500.38,489.13,49.53,0000 0000 0000 0000 000000
2014-08-18 07:19:36,0.02,0.82,0.00,26.06,30.04,32.28,9.48,40.41,1010.60,2026.00,3101.90,3073.76,3303.55,500.54,489.24,49.57,0000 0000 0000 0000 000000
2014-08-18 07:24:38,0.04,0.82,0.00,26.05,30.06,32.31,9.41,40.37,1010.35,2025.99,3101.26,3073.13,3303.03,499.80,488.58,49.61,0000 0000 0000 0000 000000
2014-08-18 07:29:39,-0.00,0.82,0.00,26.10,30.09,32.33,9.43,40.26,1010.29,2025.94,3101.00,3073.00,3302.95,500.41,489.06,49.65,0000 0000 0000 0000 000000
2014-08-18 07:34:40,-0.01,0.82,0.00,26.13,30.11,32.36,9.28,40.29,1010.29,2025.62,3100.60,3072.93,3302.34,499.40,488.03,49.69,0000 0000 0000 0000 000000
2014-08-18 07:39:41,-0.01,0.82,0.00,26.16,30.13,32.39,9.37,40.52,1010.28,2025.22,3100.17,3072.30,3302.01,499.66,488.12,49.74,0000 0000 0000 0000 000000
2014-08-18 07:44:42,0.02,0.82,0.00,26.18,30.16,32.41,9.50,40.52,1010.28,2025.18,3099.76,3072.01,3301.89,500.34,488.66,49.78,0000 0000 0000 0000 000000
2014-08-18 07:49:43,0.02,0.82,0.00,26.22,30.18,32.42,9.38,40.32,1010.27,2025.06,3098.99,3071.98,3301.20,500.29,488.57,49.82,0000 0000 0000 0000 000000
2014-08-18 07:54:44,0.04,0.82,0.00,26.25,30.21,32.45,9.41,40.42,1010.27,2025.06,3098.08,3071.56,3300.93,500.01,488.44,49.86,0000 0000 0000 0000 000000
2014-08-18 07:59:45,0.01,0.49,0.00,26.26,30.23,32.47,8.35,36.10,1010.28,2025.41,3240.03,3168.20,3419.43,447.55,437.08,0.01,0000 0000 0000 0000 000002
2014-08-18 08:04:46,0.01,0.00,0.00,26.26,30.25,32.48,9.40,40.12,1010.27,2026.00,3448.85,3312.62,3596.85,500.25,488.52,0.02,0000 0000 0000 0000 000000
2014-08-18 08:09:48,0.01,0.00,0.00,26.28,30.27,32.53,9.41,39.97,1010.27,2025.99,3447.36,3312.01,3595.69,500.24,488.38,0.07,0000 0000 0000 0000 000000
2014-08-18 08:14:49,0.01,0.00,0.00,26.31,30.30,32.54,9.44,39.73,1010.25,2025.98,3446.56,3311.63,3594.71,500.25,488.33,0.11,0000 0000 0000 0000 000000
2014-08-18 08:19:50,0.02,0.00,0.00,26.33,30.32,32.57,9.37,39.72,1010.20,2025.97,3445.99,3311.04,3594.01,500.02,488.26,0.15,0000 0000 0000 0000 000000
2014-08-18 08:24:51,0.02,0.00,0.00,26.37,30.35,32.60,9.44,39.74,1009.96,2025.91,3445.41,3310.97,3593.19,500.48,488.11,0.19,0000 0000 0000 0000 000000
2014-08-18 08:29:52,-0.01,0.00,0.00,26.40,30.37,32.63,9.41,39.73,1009.80,2025.45,3445.01,3310.38,3592.70,499.86,487.51,0.23,0000 0000 0000 0000 000000
2014-08-18 08:34:53,0.00,0.00,0.00,26.42,30.39,32.63,9.40,39.68,1009.79,2025.16,3444.43,3310.01,3592.03,500.05,487.77,0.28,0000 0000 0000 0000 000000
2014-08-18 08:39:54,0.01,0.00,0.00,26.43,30.41,32.66,9.41,39.73,1009.78,2025.12,3443.96,3310.00,3591.78,499.73,487.32,0.32,0000 0000 0000 0000 000000
2014-08-18 08:44:55,0.04,0.00,0.00,26.43,30.43,32.69,9.46,39.71,1009.78,2025.11,3443.27,3309.66,3591.07,500.13,487.84,0.36,0000 0000 0000 0000 000000
2014-08-18 08:49:56,0.01,0.00,0.00,26.46,30.46,32.71,9.43,39.60,1009.78,2025.04,3442.95,3309.06,3590.83,500.29,488.07,0.40,0000 0000 0000 0000 000000
2014-08-18 08:54:57,0.02,0.01,0.00,26.45,30.47,32.74,9.50,39.70,1009.78,2025.03,3442.48,3309.00,3590.09,500.56,488.18,0.44,0000 0000 0000 0000 000000
2014-08-18 08:59:59,0.01,0.01,0.00,26.46,30.50,32.75,9.39,39.62,1009.78,2025.01,3442.04,3308.91,3589.97,499.91,487.61,0.48,0000 0000 0000 0000 000000
2014-08-18 09:05:00,0.02,0.01,0.00,26.48,30.52,32.77,9.43,39.45,1009.78,2025.01,3441.96,3308.47,3589.27,500.15,487.87,0.53,0000 0000 0000 0000 000000
2014-08-18 09:10:01,0.02,0.01,0.00,26.51,30.54,32.80,9.37,39.41,1009.78,2025.00,3441.64,3308.13,3589.01,499.59,487.18,0.57,0000 0000 0000 0000 000000
2014-08-18 09:15:02,0.01,0.01,0.00,26.52,30.56,32.83,9.35,39.57,1009.78,2025.00,3441.04,3308.01,3588.93,499.88,487.55,0.61,0000 0000 0000 0000 000000
2014-08-18 09:20:03,0.01,0.01,0.00,26.54,30.58,32.84,9.48,39.68,1009.78,2024.99,3440.99,3307.99,3588.34,500.75,488.39,0.65,0000 0000 0000 0000 000000
2014-08-18 09:25:04,0.02,0.01,0.00,26.57,30.60,32.86,9.44,39.73,1009.78,2024.98,3440.54,3307.77,3588.00,499.91,487.49,0.69,0000 0000 0000 0000 000000
2014-08-18 09:30:05,0.03,0.01,0.00,26.59,30.62,32.88,9.37,39.88,1009.77,2024.95,3440.02,3307.11,3587.55,499.88,487.35,0.74,0000 0000 0000 0000 000000
2014-08-18 09:35:07,0.00,0.01,0.00,26.56,30.64,32.89,9.43,39.88,1009.72,2024.94,3440.00,3307.00,3587.04,500.59,488.10,0.78,0000 0000 0000 0000 000000
2014-08-18 09:40:08,-0.03,0.01,0.00,26.58,30.65,32.92,9.43,39.88,1009.58,2024.76,3439.86,3307.00,3587.00,499.80,487.29,0.82,0000 0000 0000 0000 000000
2014-08-18 09:45:09,-0.01,0.01,0.00,26.59,30.67,32.94,9.26,39.80,1009.37,2024.25,3439.14,3306.63,3586.59,499.72,486.93,0.86,0000 0000 0000 0000 000000
2014-08-18 09:50:10,0.00,0.01,0.00,26.60,30.69,32.96,9.52,39.92,1009.32,2024.02,3439.00,3306.07,3586.03,500.00,487.16,0.90,0000 0000 0000 0000 000000
2014-08-18 09:55:12,0.01,0.01,0.00,26.62,30.70,32.97,9.37,40.06,1009.29,2024.01,3438.75,3306.01,3585.99,500.15,487.24,0.94,0000 0000 0000 0000 000000
2014-08-18 10:00:13,0.01,0.01,0.00,26.64,30.72,32.99,9.42,39.92,1009.29,2024.00,3438.10,3306.00,3585.84,500.19,487.23,0.99,0000 0000 0000 0000 000000
2014-08-18 10:05:14,0.01,0.01,0.00,26.65,30.74,33.01,9.43,39.84,1009.29,2024.00,3438.00,3305.97,3585.21,500.03,487.21,1.03,0000 0000 0000 0000 000000
2014-08-18 10:10:15,0.02,0.01,0.00,26.67,30.75,33.03,9.41,39.70,1009.30,2024.00,3437.83,3305.46,3585.00,499.84,486.97,1.07,0000 0000 0000 0000 000000
2014-08-18 10:15:16,0.02,0.01,0.00,26.67,30.77,33.05,9.35,39.58,1009.29,2024.00,3437.10,3305.02,3584.84,499.97,487.10,1.11,0000 0000 0000 0000 000000
2014-08-18 10:20:17,0.01,0.01,0.00,26.68,30.78,33.06,9.44,39.73,1009.29,2023.99,3437.00,3304.99,3584.14,500.11,487.17,1.15,0000 0000 0000 0000 000000
2014-08-18 10:25:18,0.00,0.01,0.00,26.68,30.80,33.07,9.36,39.83,1009.29,2023.97,3436.92,3304.93,3584.00,499.97,486.92,1.20,0000 0000 0000 0000 000000
2014-08-18 10:30:19,0.02,0.02,0.00,26.67,30.81,33.09,9.42,39.92,1009.29,2023.95,3436.40,3304.66,3583.99,500.06,487.08,1.24,0000 0000 0000 0000 000000
2014-08-18 10:35:20,0.03,0.02,0.00,26.69,30.82,33.10,9.38,39.86,1009.29,2023.92,3436.01,3304.06,3583.51,500.14,487.19,1.28,0000 0000 0000 0000 000000
2014-08-18 10:40:21,-0.01,0.02,0.00,26.70,30.83,33.10,9.42,40.03,1009.29,2023.84,3435.98,3304.00,3583.07,500.43,487.40,1.32,0000 0000 0000 0000 000000
2014-08-18 10:45:22,0.00,0.02,0.00,26.70,30.85,33.11,9.41,40.01,1009.29,2023.68,3435.55,3303.99,3583.00,499.97,486.91,1.36,0000 0000 0000 0000 000000
2014-08-18 10:50:23,-0.03,0.02,0.00,26.70,30.86,33.12,9.43,39.97,1009.29,2023.36,3435.05,3303.80,3582.97,500.24,487.21,1.40,0000 0000 0000 0000 000000
2014-08-18 10:55:24,0.02,0.02,0.00,26.70,30.87,33.15,9.48,40.08,1009.29,2023.23,3434.97,3303.27,3582.60,499.67,486.75,1.45,0000 0000 0000 0000 000000
2014-08-18 11:00:25,0.01,0.02,0.00,26.68,30.88,33.16,9.28,39.89,1009.28,2023.09,3434.44,3303.01,3582.04,499.50,486.80,1.49,0000 0000 0000 0000 000000
2014-08-18 11:05:26,0.00,0.02,0.00,26.67,30.90,33.17,9.36,39.96,1009.04,2023.04,3434.01,3303.00,3582.00,499.93,487.03,1.53,0000 0000 0000 0000 000000
2014-08-18 11:10:27,0.00,0.02,0.00,26.69,30.90,33.18,9.38,40.02,1008.83,2023.04,3433.97,3302.94,3581.88,500.24,486.98,1.57,0000 0000 0000 0000 000000
2014-08-18 11:15:28,0.04,0.02,0.00,26.71,30.92,33.19,9.37,40.04,1008.81,2023.01,3433.39,3302.45,3581.18,499.69,486.28,1.61,0000 0000 0000 0000 000000
2014-08-18 11:20:29,0.01,0.02,0.00,26.69,30.92,33.21,9.40,39.90,1008.80,2023.01,3433.01,3302.04,3581.00,500.13,487.33,1.66,0000 0000 0000 0000 000000
2014-08-18 11:25:30,0.00,0.02,0.00,26.68,30.93,33.22,9.43,39.75,1008.80,2023.00,3433.00,3302.00,3581.00,500.28,486.81,1.70,0000 0000 0000 0000 000000
2014-08-18 11:30:31,0.00,0.02,0.00,26.69,30.95,33.22,9.38,39.91,1008.80,2023.00,3432.97,3302.00,3580.86,500.13,486.98,1.74,0000 0000 0000 0000 000000
2014-08-18 11:35:32,0.02,0.02,0.00,26.67,30.95,33.23,9.39,39.92,1008.80,2023.00,3432.54,3301.96,3580.33,500.13,487.01,1.78,0000 0000 0000 0000 000000
2014-08-18 11:40:33,0.00,0.02,0.00,26.67,30.95,33.22,9.36,39.90,1008.80,2023.00,3432.06,3301.90,3580.02,499.84,486.75,1.82,0000 0000 0000 0000 000000
2014-08-18 11:45:34,0.02,0.02,0.00,26.67,30.96,33.24,9.34,39.84,1008.79,2023.00,3432.00,3301.49,3580.00,499.80,486.64,1.86,0000 0000 0000 0000 000000
2014-08-18 11:50:35,0.01,0.02,0.00,26.68,30.97,33.25,9.44,40.05,1008.73,2023.00,3431.95,3301.07,3579.97,499.87,486.66,1.91,0000 0000 0000 0000 000000
2014-08-18 11:55:36,0.02,0.02,0.00,26.67,30.97,33.24,9.40,40.16,1008.47,2023.00,3431.51,3301.00,3579.68,500.28,487.06,1.95,0000 0000 0000 0000 000000
2014-08-18 12:00:37,0.01,0.02,0.00,26.68,30.97,33.25,9.37,39.91,1008.40,2023.00,3431.05,3301.00,3579.09,499.63,486.13,1.99,0000 0000 0000 0000 000000
2014-08-18 12:05:38,0.00,0.02,0.00,26.67,30.97,33.26,9.35,39.82,1008.33,2023.00,3431.01,3300.99,3579.02,499.90,486.34,2.03,0000 0000 0000 0000 000000
2014-08-18 12:10:39,0.00,0.02,0.00,26.67,30.98,33.26,9.43,39.78,1008.32,2023.00,3430.99,3300.95,3579.00,500.00,486.49,2.07,0000 0000 0000 0000 000000
2014-08-18 12:15:40,0.01,0.02,0.00,26.67,30.99,33.27,9.35,39.78,1008.32,2022.99,3430.84,3300.78,3578.97,499.98,486.59,2.12,0000 0000 0000 0000 000000
2014-08-18 12:20:41,0.04,0.03,0.00,26.65,31.00,33.28,9.34,39.94,1008.32,2022.99,3430.20,3300.16,3578.49,499.98,486.69,2.16,0000 0000 0000 0000 000000
2014-08-18 12:25:42,0.00,0.03,0.00,26.64,31.00,33.27,9.45,39.96,1008.31,2022.99,3430.01,3300.03,3578.06,500.43,487.04,2.20,0000 0000 0000 0000 000000
2014-08-18 12:30:44,-0.00,0.03,0.00,26.63,31.00,33.28,9.41,40.02,1008.25,2022.98,3430.00,3300.01,3578.00,500.26,486.90,2.24,0000 0000 0000 0000 000000
2014-08-18 12:35:45,0.00,0.03,0.00,26.62,31.00,33.28,9.30,39.79,1008.01,2022.97,3429.97,3300.00,3578.00,499.40,486.01,2.28,0000 0000 0000 0000 000000
2014-08-18 12:40:46,0.00,0.03,0.00,26.63,31.00,33.28,9.39,39.99,1007.85,2022.99,3429.90,3300.00,3577.99,499.90,486.31,2.32,0000 0000 0000 0000 000000
2014-08-18 12:45:47,0.01,0.03,0.00,26.63,31.00,33.28,9.41,40.02,1007.84,2022.99,3429.44,3299.99,3577.92,500.12,486.53,2.37,0000 0000 0000 0000 000000
2014-08-18 12:50:48,0.01,0.03,0.00,26.62,31.00,33.28,9.45,39.99,1007.83,2022.98,3429.01,3299.93,3577.50,500.23,486.80,2.41,0000 0000 0000 0000 000000
2014-08-18 12:55:50,0.01,0.03,0.00,26.60,31.00,33.28,9.37,39.81,1007.83,2022.99,3428.98,3299.52,3577.05,499.76,486.22,2.45,0000 0000 0000 0000 000000
2014-08-18 13:00:51,0.03,0.03,0.00,26.59,31.00,33.28,9.41,40.01,1007.81,2022.99,3428.39,3299.11,3576.85,499.93,486.56,2.49,0000 0000 0000 0000 000000